Regional Weather Roundup
Issued by NWS

Home | Current Version | Previous Version | Graphics & Text | Print | Product List | Glossary On
Versions: 1 2 3 4 5 6 7 8 9 10 11 12 13 14 15 16 17 18 19 20 21 22 23 24 25 26 27 28 29 30 31 32 33 34 35 36 37 38 39 40 41 42 43 44 45 46 47 48 49 50
000
ASUS43 KLSX 241559
RWRMO

WEATHER SUMMARY FOR MISSOURI
NATIONAL WEATHER SERVICE SPRINGFIELD MO
1000 AM CST WED DEC 24 2014

NOTE: "FAIR" INDICATES FEW OR NO CLOUDS BELOW 12,000 FEET WITH NO
       SIGNIFICANT WEATHER AND/OR OBSTRUCTIONS TO VISIBILITY.
       CURRENT SKY AND/OR WEATHER CONDITIONS ARE NOT AVAILABLE FOR
       CHILLICOTHE AND FARMINGTON.

MOZ001>031-035>038-043-044-053-054-241700-
...NORTHERN AND WESTERN MISSOURI...

CITY           SKY/WX    TMP DP  RH WIND       PRES   REMARKS
KANSAS CTY INT CLOUDY    35  32  88 NW13      29.84R WCI  26
KANSAS C DTWN  CLOUDY    37  33  85 NW12      29.85R WCI  29
LEE`S SUMMIT   CLOUDY    35  33  92 NW12      29.83R WCI  27
ST JOSEPH      CLOUDY    35  32  88 NW17      29.86R WCI  25
CHILLICOTHE      N/A     37  33  85 NW8       29.80S
KIRKSVILLE     CLOUDY    35  33  92 NW7       29.74R WCI  29

$$
MOZ066>068-077>081-088>096-101>105-241700-
...SOUTHWEST MISSOURI...

CITY           SKY/WX    TMP DP  RH WIND       PRES   REMARKS
SPRINGFIELD    MIX PCPN  36  33  89 NW10      29.80R WCI  28
JOPLIN         CLOUDY    36  33  89 NW14      29.88R WCI  27

$$
MOZ032>034-039>042-045>050-055>058-069>072-241700-
...CENTRAL MISSOURI...

CITY           SKY/WX    TMP DP  RH WIND       PRES   REMARKS
COLUMBIA       LGT RAIN  36  34  92 NW10      29.74S FOG     WCI  28
JEFFERSON CITY LGT RAIN  37  34  89 W9        29.76S FOG
ROLLA          CLOUDY    35  33  92 W10       29.72R FOG     WCI  27
SEDALIA        CLOUDY    36  33  89 NW10      29.80R WCI  28
WHITEMAN AFB   FLURRIES  36  33  88 NW10      29.80R WCI  28
OSAGE BEACH    CLOUDY    36  32  87 W8        29.77S WCI  29

$$
MOZ051-052-059>065-241700-
...EAST CENTRAL MISSOURI...

CITY           SKY/WX    TMP DP  RH WIND       PRES   REMARKS
ST LOUIS INTL  CLOUDY    40  35  83 W7        29.72R
SPIRIT OF STL  CLOUDY    39  35  86 W5        29.72R
ST CHARLES     CLOUDY    39  36  89 W6        29.71S

$$
MOZ072>076-082>087-097>100-106>115-241700-
...SOUTH CENTRAL AND SOUTHEAST MISSOURI...

CITY           SKY/WX    TMP DP  RH WIND       PRES   REMARKS
CAPE GIRARDEAU CLOUDY    40  38  93 W8        29.74R
FARMINGTON     CLOUDY    37  34  87 W8        29.74R
POPLAR BLUFF   CLOUDY    41  35  79 W6        29.76R
WEST PLAINS    CLOUDY    37  32  82 W10       29.77R WCI  30

$$



USA.gov is the U.S. government's official web portal to all federal, state and local government web resources and services.